Theta_e
308 308 308 308 307 307 308 308 308 308 308 308 308 308 308 308 307 307 307 307 307 307 307 307 307 307 307 307 306 306 306 306 307 307 307 307 307 307 308 307 307 307 307 307 307 307 307 307 307 307 307 307 307 307 307 308 308 307 307 307 306 306 305 305 305 305 305 306 306 306 306 306 306 305 305 304 304 305 305 306 306 306 306 305 305
307 307 307 307 307 307 307 307 307 307 307 307 307 307 307 306 306 306 306 306 306 306 306 306 305 306 306 305 305 305 305 305 305 305 305 305 305 305 305 305 305 305 305 305 305 304 304 304 304 304 305 305 305 305 306 306 306 306 306 305 305 305 305 304 304 304 304 305 305 305 305 305 305 304 304 304 303 303 304 304 304 305 305 305 304
306 307 307 307 306 306 306 306 306 306 306 306 306 305 305 304 304 305 305 304 305 304 304 304 304 304 304 304 304 304 304 303 303 304 303 303 303 303 303 303 303 303 303 303 303 303 302 302 303 303 303 303 303 303 304 304 304 305 305 304 304 304 304 304 303 303 303 303 304 304 304 304 304 304 304 303 303 302 302 302 303 303 303 303 303
305 305 306 305 305 305 306 306 305 305 304 303 303 303 302 302 301 301 301 301 301 301 301 301 301 300 300 300 300 301 301 301 301 301 301 301 301 301 301 301 301 301 301 301 301 301 301 301 301 301 301 302 302 302 302 303 303 303 303 303 303 303 303 303 303 303 302 303 303 303 303 304 304 304 304 303 302 302 301 301 301 301 301 301 301
304 304 304 304 304 304 304 303 302 301 300 299 299 299 298 298 298 298 298 298 298 298 297 297 297 297 297 297 297 297 297 297 298 298 298 298 299 299 299 300 300 300 300 300 300 300 300 300 300 300 300 300 301 301 301 301 302 302 302 302 302 302 303 302 302 302 302 302 302 302 303 302 303 303 303 302 301 300 299 299 299 299 298 298 298
303 302 302 302 301 300 299 298 298 297 297 297 297 296 296 296 296 296 296 296 296 296 296 296 296 296 296 296 296 296 296 296 296 296 296 296 297 298 298 298 298 298 298 298 298 299 299 299 299 299 299 300 300 300 300 300 301 301 301 301 302 302 302 302 302 301 301 301 301 301 302 301 301 301 301 301 300 299 297 296 296 295 294 294 296
301 300 300 299 298 297 297 296 296 296 296 296 295 296 296 295 295 295 295 295 295 295 295 295 295 295 295 295 295 295 295 295 295 295 295 295 296 296 296 297 297 297 297 297 297 298 298 298 298 298 298 298 299 299 299 299 300 300 300 301 301 301 301 301 301 301 300 300 300 300 300 301 301 300 300 300 299 297 296 295 294 293 292 292 293
298 298 297 297 296 296 296 295 295 295 295 295 295 295 294 294 294 294 294 294 294 294 294 294 294 294 294 294 294 294 294 294 294 294 294 294 294 295 295 296 296 296 296 296 296 296 296 297 297 297 297 298 298 298 298 299 299 299 299 300 300 300 300 300 300 300 300 300 300 300 300 300 300 300 300 298 296 295 294 293 293 294 293 292 292
297 296 296 295 295 295 295 295 294 294 294 294 294 294 294 294 294 294 294 294 294 293 293 293 293 293 293 293 293 293 293 293 293 293 293 293 294 294 294 294 294 295 295 295 295 295 295 295 296 296 296 296 297 297 297 298 298 298 298 299 299 299 299 299 299 299 299 299 299 299 299 299 299 299 299 298 296 295 295 293 292 293 293 292 291
295 295 295 294 294 294 294 294 294 293 294 294 293 293 293 293 293 293 293 293 293 293 293 293 293 292 292 292 292 292 292 292 292 292 292 293 293 293 293 293 293 293 294 294 294 294 295 295 295 295 295 295 296 296 296 297 297 297 297 297 298 298 298 298 298 299 299 299 299 299 299 299 299 299 299 299 298 297 295 292 291 291 291 290 289
295 294 294 294 293 293 293 293 293 293 293 293 293 293 293 293 293 292 292 292 292 292 291 291 291 291 291 291 291 291 291 291 291 291 291 291 292 292 292 292 293 293 293 294 294 294 295 295 295 295 296 296 296 296 296 296 296 296 297 297 297 297 297 297 297 297 298 298 298 298 298 298 299 299 299 299 299 297 295 293 291 291 290 289 289
294 293 293 293 293 293 293 293 293 293 293 293 292 292 292 291 291 291 291 291 291 290 290 290 290 290 290 290 290 290 290 290 290 290 290 290 290 291 291 291 292 292 293 293 294 294 294 295 295 295 295 295 296 296 296 296 296 296 296 296 296 296 296 296 296 296 296 297 297 297 298 298 298 298 298 298 298 297 295 293 291 291 290 289 289
293 293 292 293 293 293 293 293 292 292 292 291 291 290 290 290 290 290 290 290 290 290 290 290 290 290 289 289 289 289 290 290 289 289 289 289 289 290 290 290 291 291 292 292 293 293 293 294 294 294 294 295 295 295 296 296 296 296 296 296 296 296 296 296 296 296 296 296 296 296 297 297 297 298 298 298 298 297 295 293 291 291 290 290 290
292 292 292 292 292 292 292 291 291 290 290 290 290 289 289 289 289 289 289 289 289 289 289 289 289 289 289 289 289 289 289 289 289 289 289 289 289 289 289 290 290 290 291 291 292 292 292 293 294 293 294 294 294 295 295 295 296 296 296 296 296 296 296 296 296 295 296 296 296 296 296 296 297 297 297 297 297 297 296 294 293 291 290 290 291
291 291 291 290 291 291 290 289 289 289 289 289 289 289 289 289 289 289 289 289 289 289 289 289 289 289 289 289 289 289 289 289 289 289 289 289 289 289 289 289 290 290 290 291 291 292 292 292 293 293 293 294 294 294 295 295 295 295 295 295 295 295 295 295 295 295 295 295 295 295 296 296 296 296 297 297 297 296 296 295 295 293 292 291 291
290 290 289 289 289 288 288 288 288 288 288 288 289 289 288 288 288 288 288 288 288 288 288 288 288 288 288 288 288 288 289 289 289 289 289 289 289 289 289 289 289 290 290 290 290 291 291 292 292 292 293 293 293 293 293 294 294 294 294 294 294 294 294 293 293 293 294 294 294 295 295 295 295 295 296 296 296 296 296 295 294 293 291 290 289
289 288 288 287 287 286 286 287 287 288 288 287 287 287 287 287 287 287 288 288 288 288 288 288 288 288 288 288 288 288 288 288 288 289 289 289 288 289 289 289 289 289 289 290 290 290 291 291 291 292 292 292 292 292 292 293 293 293 293 293 293 293 293 292 292 293 293 293 293 294 294 294 295 295 295 295 295 296 295 293 293 292 290 289 289
287 287 286 286 285 285 285 286 286 286 286 286 286 287 287 287 287 288 288 288 288 288 288 288 288 288 288 288 288 288 288 288 288 288 288 288 288 288 288 288 289 289 289 289 290 290 290 291 291 291 291 291 291 291 292 292 292 292 292 292 292 292 292 292 292 292 292 293 293 293 293 294 294 294 294 294 295 295 294 293 293 292 290 289 289
285 285 285 284 284 284 284 284 285 286 286 286 287 287 288 288 288 288 288 288 288 288 288 288 288 288 288 288 288 288 288 288 288 288 288 288 288 288 288 288 288 289 289 289 289 289 290 290 290 290 290 291 291 291 291 291 292 292 292 292 292 292 291 291 291 292 292 292 292 292 293 293 293 293 293 294 294 294 294 293 293 292 290 289 290
283 284 284 283 283 283 283 284 285 286 286 287 287 287 287 287 288 288 288 287 287 287 287 287 287 287 287 287 287 287 287 287 287 287 287 287 287 287 287 288 288 288 288 288 289 289 289 289 289 289 290 290 290 290 291 291 291 291 291 291 291 291 291 291 291 291 291 291 292 292 292 292 292 292 292 293 293 293 293 292 292 291 291 290 290
282 283 283 283 283 283 284 285 286 286 287 287 287 287 287 287 287 287 287 287 287 287 287 286 286 287 287 287 287 287 287 287 287 287 287 287 286 286 286 287 287 287 288 288 288 288 288 288 289 289 289 289 289 290 289 289 289 290 290 290 289 289 290 290 290 291 291 291 291 291 292 292 292 292 291 291 292 292 292 292 291 291 291 290 290
282 282 283 283 284 285 286 286 287 287 287 287 287 287 286 286 286 286 286 286 285 285 285 285 285 286 286 286 286 286 286 286 286 286 286 286 285 285 285 286 286 286 287 287 287 288 288 288 288 288 288 288 288 288 288 288 288 288 288 288 288 288 288 289 289 290 290 291 291 291 292 292 292 291 291 291 291 291 291 291 291 291 290 290 290
282 283 283 284 285 286 286 286 286 286 286 286 286 286 286 286 286 285 284 284 283 283 283 283 284 284 285 285 285 285 285 285 285 285 285 284 284 284 285 285 286 286 287 287 287 287 287 287 287 287 287 287 287 287 287 287 287 287 287 287 287 287 288 288 289 289 290 290 291 291 291 291 291 291 291 291 291 291 290 290 290 290 290 290 290
283 284 284 285 286 286 286 286 286 285 285 285 285 285 285 285 284 283 282 281 281 281 282 282 282 283 283 283 284 284 284 284 284 284 284 283 283 283 284 285 285 285 286 286 285 285 285 286 286 286 286 286 286 286 286 286 286 287 287 287 287 287 287 288 288 288 289 290 290 291 291 291 291 291 291 291 290 290 290 290 290 289 289 289 288
283 284 285 285 285 285 285 284 284 284 284 284 284 283 283 282 282 281 280 279 280 280 281 281 281 282 282 282 282 283 283 283 283 283 282 282 282 283 283 284 284 284 284 284 284 284 284 285 285 285 285 285 286 286 286 286 286 286 286 287 287 287 287 288 288 288 289 289 290 290 291 291 291 291 291 290 290 289 289 289 288 288 287 287 287
283 284 284 284 283 282 283 282 282 282 283 282 282 281 281 279 279 278 278 278 279 279 280 280 280 280 281 281 281 281 281 281 281 281 281 282 282 282 282 282 282 282 283 283 284 284 284 284 284 284 285 285 285 285 286 286 286 286 287 287 287 287 288 288 288 288 289 289 290 290 291 291 291 291 290 290 289 288 288 288 287 286 285 285 284
282 281 281 280 280 279 280 280 281 281 281 281 281 280 278 277 277 277 277 277 278 278 278 279 279 279 280 280 280 280 280 280 280 280 281 281 281 281 281 281 282 282 283 283 284 284 284 284 283 284 284 284 285 285 286 286 287 287 287 288 288 288 288 288 288 288 289 289 290 290 290 290 290 290 289 289 288 288 287 286 285 284 283 283 282
279 279 279 278 278 278 278 278 279 279 279 279 278 278 277 277 277 277 277 276 276 276 277 277 278 278 278 278 279 279 279 279 279 280 280 280 281 281 281 281 282 282 282 283 283 283 283 283 283 284 284 285 285 286 286 287 287 288 288 288 288 288 288 288 288 288 289 289 289 289 289 289 289 289 288 287 287 287 286 285 284 282 281 281 279
279 278 278 277 276 276 277 277 277 277 277 277 277 277 277 277 277 277 277 276 275 276 276 276 276 277 277 277 277 278 278 278 279 279 280 280 280 281 281 281 281 282 282 282 282 283 283 283 283 284 284 285 286 286 286 287 287 288 288 288 288 288 288 288 288 288 288 288 288 289 289 289 289 288 287 286 286 285 284 283 282 281 281 280 278
278 276 276 275 275 275 276 276 276 275 275 275 276 277 278 277 276 276 277 276 275 275 275 276 276 276 276 277 277 277 278 278 278 279 280 280 280 280 280 281 281 281 281 282 282 283 283 283 284 284 285 285 286 286 287 287 287 287 288 288 288 288 288 288 288 288 288 288 288 288 288 288 288 287 286 285 284 283 282 282 281 280 280 279 277
276 275 274 275 275 275 275 275 274 273 273 273 273 273 275 276 276 276 276 275 275 275 274 274 275 275 276 276 276 277 277 278 278 279 279 279 279 280 280 280 281 281 281 282 283 283 283 284 284 284 285 285 286 286 287 287 287 287 287 288 288 288 288 288 288 288 288 288 288 288 288 288 287 286 285 284 282 281 281 281 280 280 280 278 276
275 275 275 275 275 274 273 272 271 271 271 270 270 270 271 273 275 276 275 275 274 274 274 274 274 275 275 276 276 276 277 277 277 278 278 279 279 279 280 280 280 281 281 282 283 283 284 284 284 285 285 285 286 286 286 286 287 287 287 288 288 288 288 288 287 287 287 287 287 287 287 288 287 285 284 284 281 280 280 280 279 280 279 277 276
274 274 274 273 272 271 270 269 269 269 269 269 269 269 269 270 271 273 274 274 274 273 273 273 273 274 274 274 275 275 276 276 277 277 278 278 279 279 279 280 280 281 282 282 283 283 284 284 284 284 285 285 285 285 286 286 286 287 287 287 287 287 287 287 287 287 287 287 287 287 287 287 286 285 284 282 281 280 280 279 279 279 278 276 275
273 273 272 271 270 269 268 268 268 268 268 268 268 268 269 269 268 269 270 272 272 272 271 271 272 272 273 273 274 274 275 276 276 277 278 278 278 279 279 280 280 281 281 282 282 283 283 283 284 284 284 284 285 285 285 285 286 286 286 287 287 287 287 287 286 286 286 286 287 287 287 286 285 284 283 281 280 279 279 279 279 278 277 275 274
272 271 270 269 268 268 267 267 267 267 267 268 268 267 267 267 268 268 268 269 270 270 270 270 271 271 272 272 273 274 275 276 276 277 277 277 278 278 279 279 280 280 280 280 280 281 281 282 282 282 282 283 283 284 284 285 285 285 286 286 286 286 286 286 286 286 286 286 286 286 287 286 284 283 282 281 279 279 279 278 278 278 276 274 273
271 270 268 268 268 268 268 268 268 267 267 266 266 266 267 267 267 268 268 268 269 269 269 270 270 270 271 272 273 274 274 275 275 276 276 276 277 277 278 278 279 279 278 278 278 278 279 279 280 280 280 281 282 283 283 284 284 285 285 285 285 285 285 286 286 286 286 286 286 286 286 285 283 283 282 280 279 279 278 278 278 277 275 273 273
271 270 269 269 269 269 269 268 267 266 266 266 266 266 266 267 267 268 268 268 269 269 269 270 270 271 271 272 273 273 273 273 274 274 275 275 276 276 277 277 277 276 276 276 276 276 276 276 277 277 278 279 281 282 282 283 283 284 284 284 285 285 285 285 285 285 285 286 286 285 285 284 283 282 281 280 279 279 278 278 277 276 274 273 273
272 271 270 269 269 269 268 267 266 266 266 266 266 266 266 267 267 268 268 268 269 269 269 270 270 271 271 272 272 272 272 272 272 273 273 274 274 275 275 274 274 274 274 274 273 273 274 274 274 275 276 278 279 280 280 281 281 282 283 283 283 284 284 284 285 285 285 285 285 285 284 283 282 281 281 280 279 278 278 277 277 275 274 273 272
271 270 269 270 270 269 267 266 266 266 266 266 266 266 267 267 267 268 268 268 269 269 269 270 270 270 270 271 271 271 271 271 271 271 272 272 273 273 272 272 272 272 272 272 271 271 271 272 272 273 274 276 276 277 277 278 280 281 281 282 282 283 283 283 284 284 284 284 284 283 283 282 281 280 280 279 279 278 278 277 276 275 273 272 272
270 269 269 270 269 267 266 265 265 266 266 266 266 266 267 267 267 268 268 268 268 268 269 269 269 269 269 270 270 270 270 270 270 270 270 271 271 271 270 270 270 270 270 269 269 269 269 270 270 271 272 273 273 273 274 275 277 279 280 281 281 281 282 282 282 282 282 282 282 282 282 281 280 280 279 279 278 278 277 276 274 274 273 272 272
269 269 269 269 267 265 265 265 265 266 266 266 266 266 267 267 267 267 267 267 267 268 268 268 268 268 268 268 268 268 268 268 268 269 269 269 269 269 269 268 268 268 268 268 268 267 268 268 268 269 270 271 271 271 271 273 274 276 278 279 280 280 280 280 280 281 281 281 281 281 280 280 279 279 278 278 277 277 276 274 273 272 272 271 271
269 269 268 266 265 264 265 265 265 265 265 265 266 266 266 266 266 266 266 267 267 267 267 267 267 267 267 267 267 267 267 267 267 267 267 267 267 267 267 267 267 266 266 266 266 266 266 267 267 268 268 268 268 269 270 271 272 273 275 277 278 278 278 278 279 279 279 279 279 279 279 278 278 278 277 276 276 275 274 273 273 272 272 270 269
268 267 266 265 264 264 265 265 265 265 265 265 265 265 265 265 266 266 266 266 266 266 266 266 266 266 266 266 266 266 266 266 266 266 266 266 266 266 266 266 266 266 266 266 266 266 266 266 267 267 268 268 268 269 269 270 271 272 273 274 275 276 276 277 277 278 278 278 277 277 277 277 276 276 276 275 274 274 273 273 272 271 270 269 268
267 266 265 264 265 265 265 265 265 265 265 265 265 265 265 265 265 265 265 265 265 265 265 265 265 265 265 265 265 265 265 265 265 265 265 265 265 265 266 266 266 266 267 266 266 266 267 267 268 269 270 270 270 270 270 270 270 271 272 272 273 274 275 275 276 276 276 276 276 276 276 275 275 275 274 274 274 273 272 272 271 270 269 268 268
266 265 265 265 265 265 265 265 265 265 265 264 264 265 265 265 265 265 265 265 265 265 265 265 265 264 264 264 264 264 264 264 264 264 264 265 265 265 266 266 266 266 267 267 267 267 267 267 268 269 270 271 271 271 271 271 271 270 271 271 272 273 273 274 275 275 276 276 275 275 275 274 274 274 273 273 273 272 271 271 270 269 269 268 267
265 265 265 265 265 265 264 264 264 264 264 264 264 264 264 264 264 264 264 264 264 264 264 264 264 264 264 264 264 263 263 263 264 264 264 264 264 264 265 265 265 266 267 267 267 268 268 268 268 268 269 270 271 271 271 271 271 271 271 271 272 273 273 274 274 274 275 275 275 274 274 274 273 273 273 272 272 271 271 270 270 269 268 268 267
265 265 265 265 265 265 264 264 264 264 264 264 264 264 264 264 264 264 264 264 264 264 264 264 264 263 263 263 263 263 263 263 263 263 263 263 263 263 264 265 265 266 266 267 267 268 269 269 269 269 269 270 271 271 271 271 271 272 272 272 272 272 273 274 274 274 274 274 274 274 273 273 272 272 272 271 271 270 270 270 269 269 268 267 267
265 265 265 265 265 264 264 264 264 263 263 263 263 263 263 264 264 264 264 264 263 263 263 263 263 263 263 263 263 263 263 263 263 263 263 263 263 263 263 264 264 265 265 266 267 267 268 268 269 269 269 270 270 270 270 270 271 271 272 272 272 272 273 273 274 274 274 274 274 273 273 272 271 271 271 271 270 270 269 269 268 268 268 267 267
265 264 264 264 264 264 264 263 263 263 263 263 262 263 263 263 263 263 263 263 263 263 263 263 263 263 263 263 263 263 263 263 263 263 263 263 263 263 264 264 264 264 265 265 266 266 267 267 267 268 268 269 269 268 268 269 270 271 271 272 272 273 273 274 274 274 274 274 274 274 273 272 271 271 270 270 270 269 269 268 268 268 268 267 267
265 264 264 264 264 264 263 263 263 263 262 262 262 262 262 262 262 262 262 262 262 262 262 262 262 262 262 262 262 262 262 262 263 263 263 263 263 264 264 264 264 264 264 265 265 265 266 266 267 267 267 268 267 267 267 267 268 269 270 271 272 273 273 274 274 274 274 274 274 274 274 273 272 271 271 270 270 270 269 269 268 268 268 267 267
264 264 264 263 263 263 263 263 262 262 262 262 261 261 261 262 262 262 262 262 262 262 262 262 262 262 262 262 262 262 262 262 263 263 263 263 263 263 264 264 264 264 264 264 265 265 266 266 266 266 267 267 267 266 266 266 266 267 269 270 271 272 272 273 273 273 273 274 274 274 274 274 273 273 272 272 271 271 270 269 269 268 268 267 267
Wind_Speed
13 12 11 11 10 9 8 7 6 6 5 4 3 3 3 3 3 3 3 3 4 5 6 6 6 6 6 6 7 7 8 8 8 9 10 11 12 13 14 15 16 18 19 21 22 22 23 24 27 29 28 28 29 30 31 31 30 31 31 32 34 31 31 30 20 23 40 40 32 35 36 32 33 34 32 34 35 34 35 37 39 41 42 43 45
15 14 14 13 12 11 10 10 9 8 8 7 6 5 5 5 5 5 5 5 5 6 6 7 8 8 8 8 8 8 9 9 9 9 11 12 13 14 15 16 17 18 20 22 24 24 24 26 28 30 30 29 30 31 33 34 33 34 34 32 35 35 32 33 29 22 32 41 36 33 36 35 34 36 36 36 37 37 38 40 41 42 44 44 45
16 16 15 15 14 13 13 12 11 11 11 10 9 9 9 9 9 9 9 9 8 8 8 9 9 9 9 9 9 10 10 11 11 11 11 12 14 15 15 16 17 18 20 22 24 24 24 26 29 30 29 28 31 32 33 34 33 34 36 34 35 37 35 34 34 28 29 39 40 34 33 34 35 36 36 37 37 37 38 40 40 41 43 44 45
17 17 17 17 16 15 15 14 13 13 13 13 12 12 12 13 13 13 12 12 12 11 11 11 11 12 12 12 12 12 13 13 13 14 14 14 15 16 17 17 18 18 20 22 23 24 24 26 29 29 28 28 31 33 32 33 34 33 35 35 35 37 37 34 35 35 31 34 41 39 33 33 36 36 35 35 35 35 37 38 39 40 42 43 44
19 19 19 19 18 17 17 16 15 15 15 14 14 14 14 14 14 14 14 13 13 13 13 13 13 14 14 14 14 15 15 16 16 17 17 17 18 18 19 20 20 21 22 23 24 25 25 27 29 28 27 29 31 33 33 32 33 33 33 35 36 37 37 36 36 38 35 33 40 43 38 34 37 38 35 33 34 35 35 37 39 40 40 40 41
20 20 20 20 19 18 18 17 16 16 15 14 14 14 14 14 14 14 14 13 14 14 14 14 14 15 15 15 16 16 17 18 18 19 19 20 20 20 21 22 23 24 25 26 26 27 27 28 29 29 28 30 32 33 33 32 32 33 33 34 36 36 36 36 35 36 37 36 38 42 40 37 36 36 36 34 33 34 33 33 35 35 36 37 39
20 20 20 19 19 18 17 16 16 15 14 14 14 13 14 14 14 14 14 14 14 14 14 15 15 15 16 16 16 17 18 19 20 20 20 21 22 22 23 24 25 27 28 28 29 29 30 30 30 30 29 30 33 33 33 32 32 33 34 34 36 35 35 36 35 33 34 35 36 37 38 38 36 35 35 33 31 33 31 27 27 29 30 33 38
20 19 19 18 18 17 16 15 14 14 13 13 13 13 13 14 14 14 14 14 14 15 15 16 16 16 17 17 17 18 19 19 20 20 21 22 23 24 25 25 27 28 29 30 31 31 32 32 32 32 32 32 33 33 32 32 31 33 34 33 34 35 34 34 33 32 31 32 33 34 33 35 36 33 31 28 25 27 28 26 27 30 28 30 35
19 18 18 17 16 15 14 14 14 13 13 13 13 14 14 14 14 14 14 14 14 15 15 16 16 17 18 18 19 19 20 21 21 21 22 23 24 25 26 27 28 30 31 32 33 33 33 34 35 35 35 36 36 36 36 35 34 35 37 35 33 33 33 33 31 30 29 27 29 31 28 29 33 29 25 26 26 27 28 26 29 31 28 27 32
18 17 17 16 15 14 14 13 13 13 13 13 13 13 13 14 14 14 14 14 15 15 16 17 18 19 20 20 21 22 23 24 24 23 23 23 25 26 27 28 29 30 32 33 34 35 34 35 37 37 37 38 38 39 39 38 37 38 41 40 37 35 33 32 31 29 27 25 26 28 24 25 32 30 27 30 31 29 28 25 26 28 24 22 25
16 16 15 14 13 13 13 13 13 13 13 13 13 14 14 14 14 15 16 16 17 19 20 21 22 22 23 23 24 25 26 26 26 26 26 25 26 27 28 30 30 30 31 32 34 36 35 35 36 36 36 36 36 38 38 39 39 39 41 42 41 40 38 36 34 32 28 25 27 29 24 25 33 34 31 32 30 28 29 27 25 24 20 16 15
15 15 14 13 13 13 13 13 13 13 13 13 13 14 14 16 17 17 18 19 20 22 23 23 24 24 24 24 25 26 27 28 28 28 29 28 28 29 29 30 31 31 31 32 34 36 36 36 37 37 36 35 35 37 38 39 40 40 42 43 43 42 42 41 40 38 33 29 28 30 30 30 33 35 34 31 28 27 28 27 26 25 23 19 17
14 13 12 12 13 13 13 13 13 13 13 14 14 15 17 18 19 19 20 21 23 24 24 25 26 26 25 26 27 27 28 30 30 30 31 31 30 30 31 32 32 33 33 33 35 36 37 37 38 39 38 35 34 35 36 38 39 39 40 41 41 41 41 42 43 43 41 37 34 35 39 37 34 36 37 32 27 26 26 26 27 27 25 24 26
13 12 12 12 13 13 13 13 13 13 14 15 16 17 18 19 19 20 21 23 24 25 26 26 26 25 26 27 28 29 29 30 31 31 31 33 32 31 32 33 33 35 35 35 36 37 38 37 38 40 40 38 35 33 34 36 37 36 36 36 37 37 37 38 40 40 42 44 43 44 48 47 41 41 41 36 31 29 27 26 28 30 30 32 36
11 11 11 12 12 12 13 12 13 14 14 16 17 18 19 20 20 21 22 24 24 25 25 25 25 26 27 27 29 30 30 30 32 33 32 32 33 32 31 33 34 35 36 37 37 38 39 37 37 39 40 40 37 34 34 36 37 37 38 37 37 38 38 39 38 36 38 43 46 48 50 51 49 47 46 43 39 36 33 32 33 34 33 32 33
9 9 9 11 11 11 12 12 14 15 16 17 18 19 20 20 21 22 23 25 25 25 25 25 26 27 28 29 30 32 33 32 32 35 35 33 33 34 33 33 34 36 38 39 39 39 39 37 37 38 40 41 41 38 36 36 37 39 39 39 39 39 41 42 38 36 39 42 44 46 48 50 50 50 50 48 45 41 36 33 34 31 25 21 22
7 8 8 10 11 11 11 13 15 16 17 18 19 19 20 20 22 24 25 27 28 27 28 28 28 28 31 32 33 35 38 37 35 36 38 36 34 35 36 35 36 37 39 41 41 40 39 37 36 37 39 42 43 42 39 37 37 38 39 39 39 40 42 42 38 36 39 41 43 45 47 49 49 50 50 49 47 43 34 29 30 27 19 13 13
7 7 8 8 9 10 10 12 15 16 16 17 19 20 21 22 24 26 27 29 30 30 31 32 32 32 34 37 38 38 42 43 40 37 39 38 36 35 36 36 37 38 40 41 42 41 39 38 37 37 40 42 44 44 41 38 36 36 36 36 36 38 41 40 36 36 37 37 39 41 43 45 47 48 49 48 48 45 36 31 32 27 19 16 14
6 7 7 7 8 9 10 12 15 16 16 18 20 22 23 24 25 27 28 30 31 32 33 35 37 38 38 39 41 41 42 45 45 41 40 40 39 37 36 35 36 38 39 41 43 43 42 41 41 41 41 41 42 41 39 36 34 34 34 33 33 35 39 39 36 35 35 35 35 36 38 40 42 43 45 45 46 45 41 37 35 28 22 22 20
6 7 6 6 7 10 12 13 15 17 18 20 21 22 24 25 26 27 29 30 31 32 33 35 37 39 40 40 41 41 41 43 45 44 42 41 40 38 36 35 36 37 38 39 41 43 43 43 43 43 41 39 38 37 35 34 33 32 32 32 32 34 38 40 39 38 37 36 37 37 37 38 38 38 39 40 41 42 41 39 37 32 28 26 23
7 6 5 6 8 12 13 14 16 17 19 21 21 22 24 25 26 27 29 30 31 32 34 34 36 39 41 40 40 41 41 40 42 44 43 41 40 37 35 34 35 35 36 37 39 40 40 41 42 42 40 38 36 35 35 35 35 35 35 35 36 38 40 41 41 41 40 38 38 37 37 36 34 33 34 35 37 39 39 38 37 35 34 31 26
6 5 6 8 11 13 14 15 16 17 19 20 21 22 23 24 25 27 27 28 30 31 32 32 33 36 39 41 40 40 40 39 41 42 42 40 40 36 33 33 34 33 33 35 36 37 38 38 40 42 42 42 41 40 40 40 40 40 39 39 40 41 41 41 41 40 38 36 35 34 33 32 30 30 30 31 34 36 37 36 35 34 36 38 34
6 6 8 10 11 12 13 15 16 17 19 20 21 22 23 24 26 26 26 27 28 29 30 29 30 33 36 39 39 38 38 38 39 40 40 39 38 36 33 32 31 29 30 31 33 35 38 40 42 45 47 48 48 47 46 46 45 44 43 42 43 42 40 39 39 38 36 35 33 31 31 30 28 28 30 32 33 33 32 32 33 34 35 38 39
7 8 9 10 11 12 13 15 16 17 19 19 21 22 23 24 25 25 24 24 26 27 28 27 26 28 31 34 37 38 36 36 38 39 38 37 36 34 31 29 28 28 29 30 33 36 39 42 45 48 50 51 51 50 50 50 49 47 45 45 45 43 39 36 35 34 32 31 30 29 30 30 29 29 31 32 31 30 29 29 31 32 32 33 34
8 8 9 9 11 12 14 15 16 17 18 19 21 22 23 24 25 24 23 23 23 23 23 22 21 22 25 28 33 36 37 37 38 39 37 36 33 30 28 28 29 30 32 34 37 38 40 42 44 46 48 49 50 50 49 49 49 48 47 47 43 39 36 33 32 31 30 29 29 29 30 32 32 32 32 31 28 26 26 26 26 26 26 26 25
7 8 9 10 11 13 14 15 16 17 18 20 21 22 22 22 23 23 22 22 21 19 18 19 20 21 23 26 30 34 37 38 38 37 36 34 31 29 30 32 34 35 36 37 38 38 39 42 44 46 48 49 50 50 50 50 50 50 49 46 42 38 35 33 32 31 29 28 28 29 30 31 32 31 30 27 26 25 24 24 23 22 22 22 19
6 7 9 9 10 12 14 15 17 18 19 21 21 21 21 20 22 23 22 22 23 22 19 19 19 19 22 26 28 30 34 35 35 35 35 34 33 33 36 38 38 37 37 36 36 38 41 44 46 46 47 48 48 48 47 46 45 43 41 39 36 34 33 32 32 31 30 29 29 29 30 30 30 28 26 24 25 25 24 24 23 21 20 20 18
6 6 8 9 10 12 13 15 17 18 19 21 21 21 21 21 23 25 23 21 24 24 21 18 17 18 21 25 26 28 30 32 33 34 35 36 38 40 40 39 38 37 36 37 39 43 45 45 44 42 41 41 40 40 39 37 36 36 36 35 32 30 30 30 31 31 30 30 30 30 29 28 27 24 23 22 23 23 23 24 23 22 22 20 17
6 7 7 8 10 12 13 15 17 18 19 21 21 22 23 23 25 27 26 21 20 22 21 20 20 20 22 25 26 27 30 33 37 40 40 40 41 41 40 41 41 40 40 42 43 44 42 40 38 36 35 35 34 34 34 33 33 33 33 32 31 30 30 28 27 28 29 28 28 28 27 26 24 21 20 20 20 21 23 23 22 23 23 20 16
5 6 7 8 10 12 13 15 16 17 18 20 24 26 27 26 25 26 27 25 21 19 20 22 24 24 25 28 28 28 31 37 41 43 42 42 42 42 42 43 43 42 43 44 43 41 37 34 34 34 33 32 31 31 31 31 31 32 32 32 32 31 29 27 26 28 28 27 27 26 26 25 21 18 19 18 17 20 23 22 23 24 22 19 16
5 5 7 8 9 11 13 13 14 16 17 19 22 25 29 31 29 26 25 26 26 23 21 22 23 23 25 29 31 32 34 36 38 38 39 41 42 44 45 46 45 43 42 43 41 37 34 31 31 31 31 30 30 31 31 31 31 31 31 32 32 29 26 26 27 28 27 26 26 25 25 24 19 17 19 18 18 21 22 21 22 22 20 19 18
4 5 6 7 9 10 11 12 13 14 15 17 18 19 23 29 33 33 29 28 29 29 26 22 21 21 22 25 29 32 35 36 36 36 37 38 39 42 44 46 47 45 43 40 35 31 30 29 28 29 29 29 30 32 32 32 32 31 31 31 29 27 25 26 27 27 26 25 25 24 23 22 19 18 19 19 19 21 21 20 20 20 17 17 18
3 4 4 6 7 8 8 9 10 11 13 14 15 16 17 19 25 32 36 36 34 30 25 21 20 22 22 23 25 28 32 36 38 37 36 36 36 38 41 44 45 44 40 34 28 26 27 28 28 29 30 31 32 34 33 32 32 32 31 30 28 27 27 27 28 27 26 25 24 23 23 21 19 18 18 19 20 21 21 20 19 18 17 16 16
3 3 3 4 5 6 7 8 9 10 11 12 13 14 14 15 17 22 28 34 36 33 28 23 20 21 24 26 26 27 28 31 34 35 36 36 35 36 38 39 38 36 33 28 25 25 27 27 28 30 31 32 33 33 33 33 32 31 31 30 29 28 28 27 26 26 26 24 23 22 21 19 18 18 17 17 18 18 18 18 18 17 17 17 17
3 3 4 4 5 5 6 8 9 10 12 12 12 13 13 14 15 16 18 22 26 29 30 28 23 22 24 27 29 29 27 26 29 32 34 34 35 35 33 30 28 28 28 26 25 25 25 26 27 30 32 32 32 32 33 33 32 31 30 30 29 28 27 26 26 25 24 22 21 21 20 17 18 19 18 18 18 18 17 18 19 19 19 19 20
4 4 4 4 5 5 7 8 9 10 11 12 13 13 13 13 14 16 17 18 20 23 26 28 27 26 25 24 26 29 29 28 28 29 30 31 31 31 28 25 25 26 26 25 25 25 25 25 26 29 31 31 30 32 33 33 32 31 31 30 29 28 27 26 25 23 21 20 20 20 18 15 17 19 18 18 19 19 19 20 19 18 21 23 23
4 4 4 4 6 7 8 9 9 10 11 12 12 12 12 12 14 15 17 18 19 21 24 25 27 27 26 25 25 28 31 31 30 27 25 25 26 25 23 24 26 26 25 25 25 25 26 26 26 27 29 29 29 30 31 31 30 30 29 28 28 26 26 25 23 22 20 19 18 18 16 14 17 19 17 16 16 16 18 19 17 17 22 25 22
3 4 4 5 6 7 8 8 9 9 10 10 10 10 11 12 13 15 16 17 19 20 22 23 23 24 26 27 28 29 31 32 31 26 23 21 21 22 23 25 25 24 24 25 26 26 26 27 27 27 28 28 28 29 30 29 29 28 27 26 25 24 24 23 22 21 20 19 17 15 13 13 15 17 17 16 15 15 17 18 18 19 22 23 21
4 4 4 5 6 6 6 7 7 8 8 8 9 10 12 13 13 14 15 17 18 19 20 21 22 22 23 26 29 30 31 31 30 28 25 23 21 21 22 24 25 24 24 25 26 26 26 26 28 28 28 28 29 29 30 30 29 27 26 25 23 22 21 20 19 18 17 15 12 10 9 10 12 14 14 14 15 17 18 19 20 22 22 21 19
4 3 4 5 5 4 4 5 6 6 7 8 10 10 11 12 14 14 15 16 17 18 18 19 20 21 23 24 26 29 30 29 28 27 26 24 22 21 21 22 23 24 25 25 25 26 26 27 29 30 28 28 29 30 30 30 28 26 25 24 22 21 20 19 17 15 12 9 6 3 5 8 11 12 13 14 16 18 20 20 20 22 22 22 21
4 4 4 4 3 2 2 3 4 5 7 9 10 10 11 12 13 14 15 16 16 17 18 18 19 21 22 23 25 27 27 27 26 25 25 25 24 22 21 21 22 23 25 25 26 27 28 29 31 30 29 29 30 31 31 30 28 27 26 24 22 21 20 18 15 11 8 5 3 3 6 10 12 14 15 16 17 19 20 21 22 23 23 23 24
4 4 3 1 1 1 2 2 3 5 7 9 9 9 10 11 12 13 14 15 16 16 17 18 19 20 21 23 24 24 23 22 23 24 24 24 24 23 22 23 23 25 26 26 26 27 28 30 30 30 30 30 30 31 30 30 29 28 26 23 22 21 20 17 13 9 5 4 5 8 10 12 14 16 17 18 19 20 21 22 23 24 24 24 26
4 3 2 1 2 2 2 2 4 5 6 8 9 9 10 11 13 13 13 14 15 15 16 17 19 20 20 21 22 21 20 20 21 23 23 23 24 25 25 26 27 28 28 27 26 26 27 28 29 30 30 30 29 28 27 26 27 27 26 23 22 21 19 17 13 8 4 4 6 9 11 14 16 18 19 20 21 22 23 23 23 23 24 26 27
4 2 2 2 2 1 2 3 4 6 6 7 8 10 11 12 12 13 13 13 14 14 14 16 17 18 19 20 21 20 19 20 21 22 23 23 25 27 28 29 31 31 29 28 28 28 27 27 29 30 31 31 30 29 26 25 24 24 24 23 21 20 20 18 14 8 4 4 7 10 12 14 16 18 19 20 22 23 23 23 23 23 24 25 25
3 2 2 2 1 2 2 3 4 6 6 7 8 9 11 12 12 12 13 12 13 13 14 15 16 17 18 19 20 19 19 20 21 22 23 24 27 29 29 30 31 31 30 29 29 29 28 27 28 29 30 31 32 32 30 27 25 23 22 21 20 19 18 16 12 7 3 3 6 9 12 14 16 17 18 19 21 22 22 22 24 24 23 23 23
3 2 1 2 2 2 3 4 5 5 6 7 8 10 12 12 12 13 13 12 12 13 14 14 15 16 17 18 18 19 20 21 22 22 23 24 26 29 30 29 29 30 29 29 29 29 28 27 28 29 29 30 31 32 32 31 29 26 23 21 18 16 14 12 10 7 4 4 6 9 12 14 15 16 17 18 19 20 21 21 22 22 22 22 23
3 2 2 3 4 4 4 5 5 6 7 7 9 11 12 13 13 13 13 12 12 12 13 14 15 16 16 17 18 19 20 21 21 22 23 24 25 26 28 28 28 28 28 27 27 27 27 26 26 27 27 27 28 29 31 32 32 31 28 25 22 18 14 11 9 7 5 5 7 9 12 14 15 16 17 18 19 20 20 20 20 20 21 22 23
3 3 3 5 5 6 6 6 6 7 8 9 10 12 13 13 13 13 13 13 12 12 12 14 15 16 17 17 17 18 20 21 21 22 23 23 24 25 26 27 27 27 27 26 26 26 25 25 25 25 25 25 26 27 28 30 31 31 31 29 26 22 17 14 11 8 6 5 6 9 12 14 16 16 17 18 19 20 21 21 20 21 21 22 23
4 4 5 6 7 7 8 8 8 9 9 10 12 13 13 14 14 14 14 14 13 12 12 13 15 16 17 17 18 18 19 20 21 22 22 23 24 26 26 27 27 27 26 26 26 26 25 25 25 24 24 24 24 25 26 27 28 29 29 29 28 25 22 19 16 12 8 6 6 9 11 14 16 17 17 18 19 20 20 21 21 21 22 22 22
6 6 7 8 9 10 10 10 10 11 11 12 13 14 14 15 15 16 15 15 14 13 13 14 15 16 16 17 18 19 19 19 20 22 22 23 24 25 26 26 27 26 26 26 26 26 26 25 25 24 23 23 23 24 25 26 26 26 25 24 24 24 23 22 20 16 12 9 8 8 10 13 15 16 16 17 17 18 19 20 20 20 21 21 21
7 8 9 11 12 12 13 13 13 13 13 13 14 15 15 16 17 17 16 16 15 15 15 16 16 16 16 16 17 19 19 19 20 21 22 22 23 24 25 25 25 26 26 26 26 26 25 25 25 24 24 23 23 24 24 25 24 23 22 20 19 19 20 20 19 18 16 13 10 8 8 9 11 13 13 14 14 15 17 17 18 19 19 19 19
Wind_Direction
133 134 131 130 128 125 124 120 117 115 106 102 93 75 56 42 28 9 355 342 338 333 327 327 323 319 317 312 307 302 296 291 284 279 277 276 275 274 273 271 272 274 275 274 273 272 272 273 274 274 273 274 273 272 271 268 266 264 263 263 260 257 256 256 255 271 276 274 272 275 278 278 277 274 271 270 269 267 266 266 267 267 266 267 268
127 125 122 120 117 112 110 106 103 100 96 91 83 74 66 60 56 52 45 34 23 16 5 357 355 353 350 341 333 325 315 306 298 290 284 282 282 282 281 279 279 279 279 280 279 279 277 276 276 277 277 275 273 273 271 269 268 266 265 261 259 258 253 252 255 264 276 278 275 274 277 277 274 274 272 270 269 267 264 264 264 263 264 266 267
121 120 117 112 108 104 100 96 93 90 87 83 80 75 70 66 64 61 57 51 44 38 31 22 18 15 9 5 357 348 340 333 324 315 308 302 299 297 295 291 288 286 286 287 288 286 282 280 281 281 280 277 275 274 273 271 268 267 266 263 261 261 256 250 252 257 268 276 277 275 275 275 274 273 273 271 270 267 265 265 264 263 263 264 265
117 115 113 108 104 101 96 92 90 88 85 83 81 77 72 69 66 62 58 55 51 47 41 34 30 25 20 15 8 2 355 348 343 338 331 324 317 313 310 304 298 294 292 293 294 291 287 284 285 286 282 278 278 276 274 273 270 267 266 265 262 262 260 253 251 254 260 272 277 275 274 275 275 275 275 273 271 268 266 266 265 263 263 263 262
115 112 108 106 103 99 96 93 91 88 86 83 79 74 69 64 59 55 51 48 44 40 35 29 24 20 15 10 5 0 355 350 347 343 337 332 325 319 316 312 307 303 299 298 298 296 292 289 290 290 284 279 278 277 275 274 272 269 267 266 264 263 262 258 253 254 256 262 271 275 275 274 274 275 274 271 270 269 267 265 263 262 262 260 260
112 110 107 104 101 98 97 93 89 86 81 76 72 67 61 55 49 45 40 36 32 27 23 19 15 11 6 3 359 354 351 348 344 342 337 332 326 319 315 312 309 308 305 303 302 299 296 294 293 291 285 280 279 278 277 275 273 270 268 267 267 265 263 261 257 255 255 257 264 272 275 274 273 273 273 270 267 266 265 265 263 260 258 257 259
110 108 105 102 99 96 93 89 85 79 74 70 64 58 53 47 42 37 31 27 24 18 14 10 6 3 359 357 354 351 349 346 342 340 337 331 325 319 315 312 310 309 307 305 304 301 298 296 293 291 287 283 281 281 279 277 274 272 270 268 269 267 264 263 260 256 255 258 261 265 270 273 272 271 272 271 267 262 259 260 262 260 255 255 257
108 105 103 100 95 91 89 85 80 74 68 64 56 50 45 39 33 29 24 20 16 12 8 3 360 358 356 353 352 349 348 346 342 339 335 331 326 319 315 312 309 307 306 305 303 302 299 296 293 291 289 287 285 283 281 278 275 274 273 270 268 267 265 263 262 259 256 258 261 263 267 270 270 270 269 265 258 256 253 249 254 258 256 255 255
105 102 99 95 90 87 84 79 73 66 59 53 46 39 34 29 24 20 16 13 10 7 3 360 356 354 353 351 349 347 346 345 342 338 334 330 324 319 314 311 308 305 304 303 302 301 299 296 294 293 291 290 289 287 284 280 276 273 274 272 268 266 265 264 262 260 258 258 261 264 265 266 267 267 262 254 250 255 255 246 247 255 256 256 256
102 99 93 89 86 83 78 72 65 58 49 43 37 31 26 22 17 14 12 9 7 4 1 359 357 353 351 348 346 344 343 343 341 337 333 329 323 318 313 309 307 304 302 300 299 298 296 294 293 293 293 291 290 288 287 284 279 275 275 273 269 265 264 264 263 260 259 259 261 263 264 263 265 263 260 258 257 256 251 241 242 251 252 251 257
98 95 90 86 82 77 71 64 58 51 44 38 33 27 22 17 13 11 9 5 3 1 358 357 355 351 347 344 341 340 339 339 338 334 331 330 324 318 313 308 304 301 298 297 296 296 295 293 292 292 291 290 289 288 287 286 283 280 278 276 272 266 263 262 263 262 260 259 261 263 261 262 265 266 263 263 261 254 247 241 239 242 238 237 251
95 91 87 83 78 72 66 59 54 49 43 36 30 24 18 13 10 7 5 2 359 357 355 352 350 348 343 340 336 334 334 335 335 333 330 329 326 321 314 309 304 300 296 295 294 294 294 294 293 292 290 288 288 287 286 285 283 281 279 277 274 271 266 261 261 261 260 260 262 262 262 262 266 267 265 264 261 255 248 240 235 234 232 232 237
93 87 83 79 73 67 62 56 51 45 39 32 25 19 15 10 6 3 0 358 354 352 351 348 346 345 340 336 333 330 331 334 333 332 330 327 326 322 315 310 305 300 297 295 294 293 292 292 293 293 292 290 289 288 286 285 285 282 280 277 275 273 269 264 261 260 260 260 260 262 263 263 264 266 266 267 264 255 246 238 235 234 231 232 237
92 84 77 74 69 64 59 52 45 38 32 25 19 14 10 6 3 359 356 354 351 349 347 344 342 341 337 334 331 328 329 332 332 330 328 326 324 320 314 309 304 300 298 296 294 293 292 292 292 293 293 292 290 288 286 286 285 283 281 278 275 273 270 268 265 263 260 257 256 258 262 263 265 267 269 271 267 258 249 242 241 237 234 238 245
92 83 73 69 66 60 53 47 39 31 24 18 14 10 6 3 0 357 353 351 349 346 344 341 338 337 336 332 329 326 326 329 330 329 326 325 323 318 312 307 303 300 299 296 294 293 292 291 291 291 292 292 290 289 286 285 286 284 282 280 277 275 273 271 268 265 262 259 256 257 261 263 266 268 270 271 269 264 260 256 253 249 244 245 248
91 84 72 65 61 55 48 38 30 23 17 14 11 8 5 2 359 356 351 349 348 344 342 341 338 336 335 333 328 326 326 328 329 329 328 326 323 319 313 307 303 301 299 297 295 293 292 291 290 290 290 290 291 291 289 287 286 285 284 282 281 279 276 275 273 269 266 264 261 261 262 264 266 268 269 270 269 268 267 262 257 252 243 240 242
91 81 70 62 55 49 41 30 22 18 15 12 10 7 5 1 358 355 351 348 348 345 342 340 338 335 334 333 330 326 326 328 329 329 328 326 323 318 313 309 304 301 300 300 297 295 294 292 291 290 290 290 292 292 291 289 286 284 284 283 282 281 280 280 279 275 271 269 267 266 266 266 267 268 269 269 268 268 265 257 251 245 230 224 239
86 75 65 57 49 40 32 22 18 17 15 12 9 6 3 0 357 354 351 348 346 344 342 338 336 334 333 332 331 328 327 328 328 328 327 325 323 318 313 309 304 301 302 302 300 298 296 295 293 291 289 290 292 293 293 291 287 283 283 283 282 281 281 283 284 281 277 274 271 269 268 266 266 267 267 268 268 267 261 254 252 244 224 221 239
87 79 67 55 41 30 21 16 15 17 14 11 8 4 1 358 355 351 349 346 343 341 339 336 333 332 331 331 329 327 326 326 326 326 326 325 323 318 313 309 304 302 302 302 301 300 298 297 295 292 290 291 293 294 294 293 289 285 284 283 280 279 283 286 287 284 282 279 276 272 270 268 267 266 265 266 267 266 262 258 256 247 229 229 237
92 84 72 54 31 21 17 15 16 16 12 8 5 2 358 353 350 348 345 342 340 337 335 334 331 329 329 328 327 326 325 324 325 325 324 323 321 319 315 309 304 303 303 301 299 299 298 298 297 295 293 293 293 294 295 294 292 289 286 282 279 281 286 288 287 285 283 281 279 276 273 272 270 266 263 263 264 265 263 260 255 248 238 236 236
86 80 65 36 19 19 20 17 16 13 8 3 360 357 354 349 346 344 342 339 337 334 333 332 329 326 326 326 325 324 324 323 322 322 322 321 320 318 314 309 304 302 301 298 295 295 296 297 296 296 296 296 296 296 296 294 293 291 288 284 283 285 288 288 287 286 284 282 279 277 274 272 270 266 261 259 259 261 261 259 256 250 243 238 236
72 63 40 23 18 21 21 16 12 8 3 359 355 351 350 346 343 342 340 337 335 332 330 330 327 324 324 324 323 323 322 321 320 320 320 319 319 319 314 309 305 303 298 294 293 293 295 296 296 297 298 299 299 298 296 294 293 290 288 287 287 288 288 288 287 285 283 280 278 275 273 270 267 264 260 258 258 258 258 256 255 254 248 242 239
57 43 30 23 20 21 18 11 7 4 359 355 351 347 345 342 340 340 338 335 332 330 329 328 326 322 321 320 320 319 319 319 318 318 318 319 320 320 316 310 308 305 300 296 296 297 299 299 298 298 299 299 299 298 297 295 294 292 289 289 290 289 287 286 285 282 279 277 275 272 272 269 265 263 260 258 259 258 256 255 255 255 252 246 242
48 37 29 24 19 16 12 7 3 0 356 350 347 345 343 340 340 339 336 333 331 328 326 325 322 318 316 315 316 317 318 318 316 317 319 319 320 320 317 312 312 311 307 303 302 301 300 299 298 298 299 299 299 299 297 295 295 293 291 291 290 287 282 280 281 279 276 273 271 268 268 267 263 261 260 259 260 259 256 256 256 253 251 246 240
45 36 29 24 16 11 7 3 359 355 352 349 346 343 341 340 338 336 334 331 327 322 318 317 314 310 308 308 311 315 317 316 315 317 319 320 320 319 318 315 313 311 308 304 302 300 300 299 299 300 300 299 299 299 297 295 294 293 291 289 287 281 276 275 277 275 271 268 266 264 264 264 263 262 262 261 260 257 251 248 247 244 240 235 231
43 34 28 21 13 7 2 359 355 352 349 348 346 342 340 338 334 332 330 327 323 315 309 309 310 308 306 306 308 311 314 314 314 316 319 321 321 319 318 316 313 311 308 304 302 302 302 301 300 300 299 298 297 295 293 292 292 291 289 286 281 275 271 271 271 270 267 266 266 265 264 266 266 265 264 260 253 247 241 235 231 226 220 214 206
45 35 29 21 9 2 359 355 351 350 348 346 343 340 338 334 328 325 324 322 320 316 310 307 308 307 306 306 307 308 310 311 312 316 319 321 320 318 317 315 313 312 310 307 306 305 302 300 300 298 296 295 293 291 290 289 289 288 286 284 279 271 265 265 265 264 266 270 271 270 270 269 268 264 258 250 243 238 232 225 218 208 199 192 180
52 37 26 17 6 359 356 354 350 348 346 343 340 336 333 330 325 322 320 317 315 314 310 304 304 306 305 305 306 307 306 306 309 313 316 316 315 315 314 313 313 312 310 308 308 305 302 300 298 296 294 293 290 289 289 288 287 286 284 283 279 270 265 268 267 263 265 270 272 272 272 269 266 259 249 240 234 227 220 215 207 194 184 178 162
46 32 20 11 2 356 355 354 350 346 344 341 338 334 331 329 326 322 320 318 314 311 306 299 299 302 301 300 301 302 300 301 305 309 310 310 310 311 311 310 311 310 309 309 308 304 300 299 297 295 294 292 290 290 290 289 288 286 283 282 279 273 270 271 269 265 267 269 269 270 271 269 263 252 238 229 222 213 207 203 194 185 180 174 161
36 26 15 5 358 352 352 352 349 346 344 341 337 334 331 330 327 323 322 322 318 308 299 295 298 299 297 295 295 293 291 295 300 305 307 309 310 311 309 309 309 309 310 311 309 304 299 297 296 296 295 293 291 291 291 291 290 287 286 285 281 276 272 272 271 270 271 271 269 269 270 268 259 240 224 216 206 199 198 195 187 182 178 169 157
37 22 8 0 356 352 350 348 346 344 342 338 335 332 330 329 329 326 324 323 321 315 304 297 296 296 294 295 295 294 293 295 299 303 306 309 311 312 311 311 311 310 312 312 308 303 300 297 296 297 295 293 293 293 294 294 293 291 292 291 286 280 276 276 276 274 273 272 270 268 268 265 253 231 218 210 196 189 189 187 184 183 178 168 159
39 20 5 357 355 353 350 347 343 340 336 333 330 329 328 328 328 328 326 324 324 324 321 313 304 299 297 297 298 298 299 301 303 305 307 309 311 312 312 311 312 312 313 312 306 300 299 299 300 301 300 298 297 297 297 297 296 296 295 294 290 285 282 281 280 277 275 274 270 267 267 262 247 228 217 204 189 184 182 180 180 178 171 164 159
43 24 6 356 352 350 348 342 336 332 329 328 328 330 328 325 324 324 324 325 326 327 326 322 314 309 305 301 299 299 301 303 306 307 309 311 312 313 312 312 312 313 315 314 307 303 304 304 303 304 304 302 302 302 301 299 299 299 297 294 291 289 287 285 284 280 277 274 270 268 267 259 239 223 212 197 187 185 181 176 175 169 159 153 151
60 39 17 3 355 350 343 335 330 328 329 328 328 326 324 320 317 316 318 323 325 325 323 322 319 315 313 309 306 303 302 305 307 310 312 314 314 315 314 313 313 316 318 318 314 312 311 310 308 308 309 308 307 307 305 303 302 302 300 298 295 293 290 288 285 281 278 274 271 269 267 254 229 212 201 188 184 184 179 172 169 162 154 150 148
69 51 33 18 5 354 343 336 335 334 333 331 327 322 317 315 312 308 306 310 313 314 315 317 319 318 316 313 311 310 310 311 311 312 314 316 317 319 319 316 316 319 321 321 319 316 314 312 311 312 313 312 310 309 308 307 307 306 304 303 301 299 297 293 287 282 278 274 273 273 267 246 221 208 197 186 181 178 173 171 171 165 158 153 149
65 56 40 18 3 353 344 341 341 338 333 328 323 318 311 306 304 304 302 300 300 302 306 311 317 319 318 316 315 316 317 318 318 317 317 317 320 323 323 320 319 320 320 320 320 318 316 314 312 311 312 311 310 311 312 312 312 311 310 309 307 305 302 298 291 285 279 276 278 276 265 237 214 207 198 187 182 180 175 172 170 163 157 153 150
66 58 44 17 3 360 354 349 345 338 331 326 319 311 304 300 299 300 300 299 301 303 305 310 316 320 321 322 323 322 320 321 322 321 319 320 324 326 324 320 320 319 318 320 321 319 316 315 313 312 312 312 313 314 316 316 315 314 314 314 312 310 307 303 298 293 287 284 281 273 257 229 210 204 194 182 178 177 172 166 158 151 152 152 147
68 56 43 23 13 8 360 351 344 336 328 320 310 300 296 296 298 300 300 302 304 306 309 312 317 320 321 323 325 325 323 324 325 325 326 328 329 328 324 322 320 318 317 319 322 320 317 317 316 315 314 316 319 320 319 318 318 318 319 319 317 316 314 310 307 303 296 290 282 268 247 222 207 200 189 176 168 164 161 157 148 142 146 149 147
74 59 42 29 22 13 359 348 342 336 322 306 298 297 296 297 300 301 303 306 307 309 312 315 317 319 321 322 324 327 327 326 326 326 328 330 331 328 325 322 320 319 318 318 320 321 319 318 320 321 319 320 324 325 324 323 323 323 323 324 322 322 321 318 315 311 305 297 286 265 233 204 192 186 176 164 157 154 154 153 149 147 147 148 146
88 73 52 39 31 17 356 342 334 325 309 296 295 297 296 299 305 306 308 309 310 311 315 316 316 318 320 322 325 327 326 324 322 322 323 325 327 328 327 324 321 320 319 319 321 322 321 320 324 325 324 323 326 330 331 330 328 327 328 329 329 329 328 326 325 322 318 314 304 257 188 170 166 162 153 147 147 148 148 146 144 145 144 142 139
101 84 66 45 29 7 344 330 314 301 293 289 292 295 298 302 306 307 308 311 312 314 317 317 316 317 319 320 323 326 324 319 317 319 320 321 322 325 326 325 321 320 321 321 323 325 327 329 331 332 331 332 334 336 338 339 338 336 334 333 335 335 334 334 337 337 337 346 19 106 132 140 143 139 135 134 137 140 140 139 138 137 137 137 136
105 90 82 63 301 266 281 301 294 289 288 287 289 295 302 305 306 307 309 311 313 315 317 317 317 319 320 321 324 327 325 320 318 319 319 319 323 326 328 327 327 329 330 331 331 333 337 341 342 343 345 346 346 346 346 348 349 348 344 340 340 341 342 345 349 353 6 41 79 102 114 123 128 127 127 129 131 131 133 134 135 135 135 136 137
115 107 121 212 232 239 261 286 287 285 286 290 296 304 307 303 303 306 307 309 312 314 315 317 319 320 322 325 328 329 327 324 323 322 321 323 329 335 337 339 342 344 345 346 346 348 350 353 354 355 358 360 358 356 355 355 355 356 355 352 349 349 350 353 356 360 24 68 93 107 114 119 122 122 123 126 128 128 129 132 134 136 137 138 138
130 136 187 226 246 274 282 280 281 284 290 299 306 310 307 301 300 304 304 304 309 313 313 315 318 320 323 329 333 333 329 325 324 326 328 331 336 341 345 348 350 352 352 353 355 357 359 0 1 5 9 12 10 8 7 5 4 4 4 3 2 1 360 360 0 4 32 86 103 110 113 117 121 123 125 128 130 129 130 133 135 136 137 138 138
149 162 211 234 259 290 287 286 288 293 304 315 313 306 300 296 296 300 300 300 305 311 314 317 320 323 327 333 336 335 333 330 329 330 332 337 343 348 351 351 351 353 355 356 357 359 2 4 5 8 12 15 17 16 15 14 14 13 12 12 10 9 8 7 5 5 23 93 112 117 119 120 122 124 126 129 132 132 133 136 138 138 138 140 139
172 192 230 261 276 281 282 292 300 303 309 311 301 294 293 293 293 296 298 297 302 309 313 317 322 326 331 335 336 336 336 336 335 333 333 337 344 350 353 352 351 353 356 358 359 0 3 6 8 9 10 13 16 18 19 19 19 18 18 17 15 12 11 12 11 11 30 80 106 118 121 120 121 125 127 128 130 130 131 134 137 138 139 139 138
189 211 245 266 276 279 281 287 296 301 303 299 291 287 288 289 289 293 294 294 300 308 313 318 323 327 332 337 340 340 338 337 337 337 337 339 343 347 350 351 352 353 356 359 0 1 3 5 7 8 9 12 14 16 18 21 21 21 21 20 18 14 11 11 17 31 54 87 111 121 123 120 120 123 125 125 126 126 127 129 132 134 135 137 137
204 231 258 267 270 276 280 283 287 288 288 288 287 286 286 287 289 290 291 292 299 308 315 320 324 326 329 334 340 342 340 338 337 339 341 343 345 348 349 351 352 353 355 357 360 1 2 3 4 6 7 10 12 14 16 18 20 22 23 22 22 20 16 14 20 32 48 77 106 118 120 120 121 122 123 124 125 125 126 127 130 132 134 136 138
217 238 260 267 269 273 275 276 278 280 281 283 284 284 285 287 286 286 288 292 299 307 313 319 323 324 325 329 334 339 341 340 338 338 341 345 349 351 352 353 353 354 355 358 360 1 2 3 4 5 7 9 12 13 12 13 15 19 21 22 23 24 25 27 29 33 40 65 100 115 120 121 122 122 123 125 126 127 127 129 131 133 135 136 137
230 246 262 267 270 275 276 273 273 276 278 279 280 281 282 283 283 283 287 293 301 307 313 317 320 322 323 323 326 332 336 338 337 337 339 343 348 352 353 353 353 354 355 357 359 0 1 3 4 5 6 10 12 13 12 12 12 13 15 18 20 22 26 30 34 37 41 52 75 98 112 120 123 123 123 125 127 128 129 131 133 135 136 137 139
241 253 265 270 271 274 274 272 273 276 276 276 276 277 278 279 281 282 285 292 299 306 310 312 315 317 318 319 322 325 329 332 335 336 337 339 343 347 349 351 352 352 353 355 357 359 0 2 3 4 5 7 11 12 12 11 10 8 9 13 17 21 24 27 30 33 36 40 48 65 86 102 111 115 119 124 128 130 132 134 136 138 139 140 144